Deelen, Netherlands

2:02 AM CET on February 28, 2017 (GMT +0100)
Deelen Air Base

Weather History for EHDL - October, 2013

Change the Weather History Date:

Sunday, October 6, 2013

  Actual Average Record
Temperature  
Mean Temperature 52 °F -  
Max Temperature 60 °F 54 °F 68 °F (1997)
Min Temperature 44 °F 43 °F 37 °F (1999)
Degree Days  
Heating Degree Days 13    
Growing Degree Days 2 (Base 50)    
Moisture  
Dew Point 49 °F    
Average Humidity 91    
Maximum Humidity 100    
Minimum Humidity 63    
Precipitation  
Precipitation 0.00 in - - ()
Sea Level Pressure  
Sea Level Pressure 30.26 in    
Wind  
Wind Speed 1 mph ()    
Max Wind Speed 7 mph    
Max Gust Speed -    
Visibility 4.3 miles    
Events Fog    
Averages and records for this station are not official NWS values.
T = Trace of Precipitation, MM = Missing Value Source: Averaged Metar Reports

Daily Weather History Graph

Daily Weather History Graph

Search for Another Location

Airport or City:

Trip Planner

Search our weather history database for the weather conditions in past years. The results will help you decide how hot, cold, wet, or windy it might be!

Date:

Astronomy

Oct. 06, 2013 Rise Set
Actual Time 7:45 AM CEST 7:02 PM CEST
Civil Twilight 7:12 AM CEST 7:35 PM CEST
Nautical Twilight 6:32 AM CEST 8:15 PM CEST
Astronomical Twilight 5:53 AM CEST 8:54 PM CEST
Moon 9:28 AM CEST (10/6) 7:32 PM CEST (10/6)
Length of Visible Light 12h 23m
Length of Day
11h 16m
New Moon, 2% of the Moon is Illuminated
Oct 6
New Moon
Oct 12
First Quarter
Oct 19
Full
Oct 27
Last Quarter
Nov 3
New

Hourly Weather History & Observations

Time (CEST) Temp. Dew Point Humidity Pressure Visibility Wind Dir Wind Speed Gust Speed Precip Events Conditions
12:25 AM 48.2 °F 48.2 °F 100% 30.21 in 6.2 mi Calm Calm - N/A   Overcast
12:55 AM 48.2 °F 48.2 °F 100% 30.21 in 6.2 mi Calm Calm - N/A   Overcast
1:25 AM 48.2 °F 48.2 °F 100% 30.21 in 6.2 mi Calm Calm - N/A   Mostly Cloudy
1:55 AM 46.4 °F 46.4 °F 100% 30.21 in 6.2 mi Calm Calm - N/A   Mostly Cloudy
2:25 AM 46.4 °F 46.4 °F 100% 30.21 in 0.2 mi Calm Calm - N/A Fog Fog
2:55 AM 44.6 °F 44.6 °F 100% 30.21 in 0.2 mi Calm Calm - N/A Fog Fog
3:25 AM 44.6 °F 44.6 °F 100% 30.21 in 5.0 mi Calm Calm - N/A   Overcast
3:55 AM 46.4 °F 46.4 °F 100% 30.21 in 1.4 mi Calm Calm - N/A   Overcast
4:25 AM 46.4 °F 46.4 °F 100% 30.21 in 0.5 mi Calm Calm - N/A Fog Fog
4:55 AM 46.4 °F 46.4 °F 100% 30.21 in 0.2 mi Calm Calm - N/A Fog Fog
5:25 AM 46.4 °F 46.4 °F 100% 30.24 in 0.2 mi Calm Calm - N/A Fog Fog
5:55 AM 46.4 °F 46.4 °F 100% 30.24 in 0.1 mi Calm Calm - N/A Fog Fog
6:25 AM 46.4 °F 46.4 °F 100% 30.24 in 0.3 mi Calm Calm - N/A Fog Fog
6:55 AM 44.6 °F 44.6 °F 100% 30.24 in 0.3 mi Calm Calm - N/A Fog Fog
7:25 AM 44.6 °F 44.6 °F 100% 30.24 in 0.2 mi Calm Calm - N/A Fog Fog
7:55 AM 44.6 °F 44.6 °F 100% 30.24 in 0.2 mi Calm Calm - N/A Fog Fog
8:25 AM 44.6 °F 44.6 °F 100% 30.27 in 0.2 mi SW 1.2 mph - N/A Fog Fog
8:55 AM 46.4 °F 46.4 °F 100% 30.27 in 0.6 mi ESE 2.3 mph - N/A Fog Fog
9:25 AM 48.2 °F 48.2 °F 100% 30.27 in - ENE 1.2 mph - N/A Fog Fog
9:55 AM 50.0 °F 50.0 °F 100% 30.27 in - Calm Calm - N/A   Overcast
10:25 AM 51.8 °F 51.8 °F 100% 30.27 in 0.4 mi East 1.2 mph - N/A Fog Fog
10:55 AM 53.6 °F 53.6 °F 100% 30.27 in 3.7 mi SW 3.5 mph - N/A   Overcast
11:25 AM 55.4 °F 55.4 °F 100% 30.27 in 6.2 mi SW 2.3 mph - N/A   Overcast
11:55 AM 59.0 °F 53.6 °F 82% 30.27 in 6.2 mi South 2.3 mph - N/A   Partly Cloudy
12:25 PM 60.8 °F 51.8 °F 72% 30.27 in 6.2 mi South 1.2 mph - N/A   Scattered Clouds
12:55 PM 60.8 °F 50.0 °F 68% 30.27 in 6.2 mi NNW 3.5 mph - N/A   Overcast
1:25 PM 60.8 °F 48.2 °F 63% 30.27 in 6.2 mi NW 4.6 mph - N/A   Overcast
1:55 PM 60.8 °F 48.2 °F 63% 30.27 in 6.2 mi WNW 4.6 mph - N/A   Overcast
2:25 PM 60.8 °F 48.2 °F 63% 30.27 in 6.2 mi West 4.6 mph - N/A   Overcast
2:55 PM 60.8 °F 50.0 °F 68% 30.27 in 6.2 mi WSW 5.8 mph - N/A   Overcast
3:25 PM 60.8 °F 50.0 °F 68% 30.27 in 6.2 mi WSW 6.9 mph - N/A   Overcast
3:55 PM 60.8 °F 48.2 °F 63% 30.27 in 6.2 mi WSW 4.6 mph - N/A   Overcast
4:25 PM 60.8 °F 50.0 °F 68% 30.27 in 6.2 mi SW 5.8 mph - N/A   Overcast
4:55 PM 60.8 °F 51.8 °F 72% 30.27 in 6.2 mi SW 5.8 mph - N/A   Overcast
5:25 PM 59.0 °F 51.8 °F 77% 30.27 in 6.2 mi SSW 4.6 mph - N/A   Overcast
5:55 PM 59.0 °F 53.6 °F 82% 30.27 in 6.2 mi SE 2.3 mph - N/A   Overcast
6:25 PM 59.0 °F 53.6 °F 82% 30.27 in 6.2 mi SSE 2.3 mph - N/A   Overcast
6:55 PM 57.2 °F 53.6 °F 88% 30.27 in 6.2 mi SSE 2.3 mph - N/A   Overcast
7:25 PM 53.6 °F 50.0 °F 88% 30.30 in 6.2 mi Calm Calm - N/A   Partly Cloudy
7:55 PM 51.8 °F 50.0 °F 94% 30.30 in 6.2 mi NE 2.3 mph - N/A   Partly Cloudy
8:25 PM 48.2 °F 48.2 °F 100% 30.30 in 6.2 mi SE 3.5 mph - N/A   Scattered Clouds
8:55 PM 50.0 °F 48.2 °F 94% 30.30 in 6.2 mi ESE 2.3 mph - N/A   Overcast
9:25 PM 50.0 °F 50.0 °F 100% 30.30 in 6.2 mi East 3.5 mph - N/A   Overcast
9:55 PM 50.0 °F 50.0 °F 100% 30.30 in 6.2 mi ESE 3.5 mph - N/A   Overcast
10:25 PM 50.0 °F 50.0 °F 100% 30.30 in 6.2 mi East 1.2 mph - N/A   Mostly Cloudy
10:55 PM 48.2 °F 48.2 °F 100% 30.30 in 6.2 mi East 2.3 mph - N/A   Mostly Cloudy
11:25 PM 50.0 °F 50.0 °F 100% 30.30 in 5.0 mi East 2.3 mph - N/A   Overcast
11:55 PM 51.8 °F 51.8 °F 100% 30.30 in 6.2 mi East 2.3 mph - N/A   Overcast